AC4AG Weather Reports


time (UTC)temp
C
wind
direction
speed
KPH
gust
KPH
rain 1hr
cm
rain 24hr
cm
rain mn
cm
humidity
%
barometer
mb
20260503215317 15 264 9.7 20.9 0.00 0.00 0.00 49 1015.6
20260503214815 15 211 4.8 11.3 0.00 0.00 0.00 52 1015.7
20260503214312 15 225 12.9 16.1 0.00 0.00 0.00 51 1016.1
20260503213810 15 279 8.0 16.1 0.00 0.00 0.00 51 1016.0
20260503213307 15 260 9.7 12.9 0.00 0.00 0.00 52 1016.3
20260503212804 15 283 12.9 22.5 0.00 0.00 0.00 52 1016.4
20260503212302 15 293 12.9 22.5 0.00 0.00 0.00 52 1016.6
20260503211759 15 232 17.7 20.9 0.00 0.00 0.00 52 1016.4
20260503211255 15 221 8.0 12.9 0.00 0.00 0.00 52 1016.6
20260503210755 15 261 11.3 22.5 0.00 0.00 0.00 52 1016.5
20260503210253 15 260 12.9 14.5 0.00 0.00 0.00 53 1016.7
20260503205748 15 258 9.7 17.7 0.00 0.00 0.00 53 1016.8
20260503205245 15 198 11.3 12.9 0.00 0.00 0.00 52 1016.9
20260503204741 15 296 8.0 14.5 0.00 0.00 0.00 52 1016.8
20260503204239 15 112 1.6 14.5 0.00 0.00 0.00 54 1017.0
20260503203736 15 240 12.9 22.5 0.00 0.00 0.00 52 1016.7
20260503203234 15 300 4.8 11.3 0.00 0.00 0.00 54 1016.9
20260503202730 15 277 17.7 20.9 0.00 0.00 0.00 50 1017.4
20260503202228 15 246 12.9 16.1 0.00 0.00 0.00 49 1017.0
20260503201726 15 267 9.7 16.1 0.00 0.00 0.00 52 1017.5
20260503201223 15 222 9.7 17.7 0.00 0.00 0.00 51 1017.5
20260503200719 15 207 12.9 17.7 0.00 0.00 0.00 53 1017.5
20260503200216 15 309 8.0 20.9 0.00 0.00 0.00 49 1017.5
20260503195713 15 190 11.3 20.9 0.00 0.00 0.00 49 1017.4
20260503195210 15 226 11.3 16.1 0.00 0.00 0.00 49 1017.7
20260503194707 15 196 9.7 14.5 0.00 0.00 0.00 49 1017.6
20260503194203 15 268 11.3 14.5 0.00 0.00 0.00 49 1017.9
20260503193659 15 229 9.7 12.9 0.00 0.00 0.00 49 1018.2
20260503193155 15 233 11.3 17.7 0.00 0.00 0.00 49 1018.1
20260503192651 14 240 17.7 20.9 0.00 0.00 0.00 50 1018.3
20260503192146 14 218 11.3 16.1 0.00 0.00 0.00 49 1018.3
20260503191643 15 238 14.5 20.9 0.00 0.00 0.00 47 1018.3
20260503191141 15 216 4.8 11.3 0.00 0.00 0.00 52 1018.5
20260503190637 14 206 4.8 16.1 0.00 0.00 0.00 51 1018.5
20260503190134 14 189 4.8 9.7 0.00 0.00 0.00 49 1018.6
20260503185631 13 229 8.0 17.7 0.00 0.00 0.00 50 1018.9
20260503185126 14 262 4.8 11.3 0.00 0.00 0.00 47 1018.7
20260503184621 14 282 4.8 8.0 0.00 0.00 0.00 49 1019.0
20260503184118 13 151 6.4 11.3 0.00 0.00 0.00 50 1018.8
20260503183615 14 215 14.5 17.7 0.00 0.00 0.00 47 1019.0
20260503183112 13 262 6.4 12.9 0.00 0.00 0.00 47 1019.2
20260503182610 13 290 8.0 9.7 0.00 0.00 0.00 48 1019.3
20260503182108 13 258 8.0 12.9 0.00 0.00 0.00 45 1019.5
20260503181605 14 173 4.8 11.3 0.00 0.00 0.00 48 1019.2
20260503181101 13 286 6.4 8.0 0.00 0.00 0.00 47 1019.4
20260503180559 13 279 6.4 9.7 0.00 0.00 0.00 50 1019.7
20260503180056 13 208 11.3 16.1 0.00 0.00 0.00 46 1019.5
20260503175553 13 262 6.4 12.9 0.00 0.00 0.00 47 1019.6
20260503175050 13 272 8.0 11.3 0.00 0.00 0.00 48 1019.6
20260503174547 13 91 4.8 11.3 0.00 0.00 0.00 48 1019.5
20260503174044 12 305 9.7 12.9 0.00 0.00 0.00 48 1019.5
20260503173539 12 171 0.0 8.0 0.00 0.00 0.00 47 1019.9
20260503173035 12 218 9.7 16.1 0.00 0.00 0.00 49 1020.1
20260503172533 12 257 14.5 17.7 0.00 0.00 0.00 49 1020.2
20260503172030 12 121 4.8 8.0 0.00 0.00 0.00 51 1020.1
20260503171526 12 168 8.0 9.7 0.00 0.00 0.00 48 1020.1
20260503171024 12 271 6.4 9.7 0.00 0.00 0.00 49 1020.5
20260503170520 12 99 0.0 4.8 0.00 0.00 0.00 48 1020.3
20260503150912 10 183 4.8 4.8 0.00 0.00 0.00 48 1021.8
20260503150409 11 232 3.2 4.8 0.00 0.00 0.00 49 1021.8
20260503131302 7 125 0.0 3.2 0.00 0.00 0.00 78 1021.7
20260503130759 7 93 0.0 3.2 0.00 0.00 0.00 77 1021.7
20260503130257 7 132 0.0 1.6 0.00 0.00 0.00 80 1021.5
20260503110650 0 125 0.0 0.0 0.00 0.00 0.00 99 1020.8
20260503110148 0 125 0.0 0.0 0.00 0.00 0.00 99 1020.3
20260503100114 1 101 0.0 0.0 0.00 0.00 0.00 99 1019.9
20260503081504 2 120 0.0 0.0 0.00 0.00 0.00 94 1019.4
20260503081001 2 120 0.0 0.0 0.00 0.00 0.00 94 1019.4
20260503080457 2 110 0.0 0.0 0.00 0.00 0.00 95 1019.5
20260503072933 3 115 1.6 1.6 0.00 0.00 0.00 95 1019.5
20260503072431 3 85 1.6 3.2 0.00 0.00 0.00 95 1019.2
20260503071928 3 11 4.8 4.8 0.00 0.00 0.00 95 1019.1
20260503071425 3 49 1.6 8.0 0.00 0.00 0.00 94 1019.1
20260503070921 3 32 3.2 8.0 0.00 0.00 0.00 94 1018.9
20260503070418 4 36 4.8 4.8 0.00 0.00 0.00 95 1018.9
20260503054832 5 74 1.6 3.2 0.00 0.00 0.00 89 1018.4
20260503054327 5 65 1.6 1.6 0.00 0.00 0.00 90 1018.5
20260503053826 5 88 1.6 1.6 0.00 0.00 0.00 89 1018.6
20260503053324 5 103 0.0 0.0 0.00 0.00 0.00 89 1018.6
20260503052820 5 126 0.0 0.0 0.00 0.00 0.00 88 1018.5
20260503052317 5 121 0.0 1.6 0.00 0.00 0.00 87 1018.7
20260503051812 5 134 0.0 0.0 0.00 0.00 0.00 86 1018.8
20260503051309 5 131 0.0 1.6 0.00 0.00 0.00 86 1018.7
20260503050806 5 107 0.0 0.0 0.00 0.00 0.00 86 1018.4
20260503050302 5 110 0.0 0.0 0.00 0.00 0.00 85 1018.5
20260503045800 5 105 0.0 1.6 0.00 0.00 0.00 84 1018.8
20260503045258 5 65 1.6 1.6 0.00 0.00 0.00 84 1018.5
20260503044753 5 133 0.0 1.6 0.00 0.00 0.00 83 1018.4
20260503044251 5 117 0.0 1.6 0.00 0.00 0.00 82 1018.4
20260503043748 5 105 0.0 1.6 0.00 0.00 0.00 82 1018.2
20260503043245 5 130 0.0 3.2 0.00 0.00 0.00 82 1018.5
20260503042741 6 144 1.6 3.2 0.00 0.00 0.00 82 1018.3
20260503042238 6 132 1.6 1.6 0.00 0.00 0.00 81 1018.5
20260503041733 6 147 0.0 0.0 0.00 0.00 0.00 81 1018.2
20260503041232 6 136 0.0 1.6 0.00 0.00 0.00 81 1018.1
20260503040729 6 134 0.0 0.0 0.00 0.00 0.00 81 1018.1
20260503040227 6 123 1.6 3.2 0.00 0.00 0.00 81 1018.0
20260503035723 6 150 0.0 1.6 0.00 0.00 0.00 81 1018.2
20260503035221 6 137 0.0 0.0 0.00 0.00 0.00 80 1018.1
20260503034718 6 130 0.0 0.0 0.00 0.00 0.00 79 1018.0
20260503034215 6 163 0.0 1.6 0.00 0.00 0.00 79 1018.0
20260503033712 6 187 1.6 1.6 0.00 0.00 0.00 78 1017.9
20260503033209 6 128 0.0 0.0 0.00 0.00 0.00 79 1017.9
20260503032708 6 146 0.0 0.0 0.00 0.00 0.00 79 1017.8
20260503032206 6 136 0.0 0.0 0.00 0.00 0.00 79 1018.0
20260503031702 7 135 1.6 3.2 0.00 0.00 0.00 78 1018.2
20260503031201 7 117 0.0 1.6 0.00 0.00 0.00 78 1017.8
20260503030656 7 134 0.0 1.6 0.00 0.00 0.00 77 1018.1
20260503030153 7 110 0.0 1.6 0.00 0.00 0.00 76 1017.9
20260503025650 7 116 0.0 0.0 0.00 0.00 0.00 76 1018.0
20260503025148 7 239 1.6 3.2 0.00 0.00 0.00 75 1017.9
20260503024644 7 108 1.6 1.6 0.00 0.00 0.00 75 1018.1
20260503024142 7 131 1.6 4.8 0.00 0.00 0.00 74 1017.9
20260503023639 8 207 1.6 1.6 0.00 0.00 0.00 74 1017.9
20260503023136 8 69 1.6 1.6 0.00 0.00 0.00 73 1018.0
20260503022632 8 203 1.6 3.2 0.00 0.00 0.00 73 1017.6
20260503022132 8 298 4.8 8.0 0.00 0.00 0.00 72 1017.7
20260503021629 8 346 1.6 3.2 0.00 0.00 0.00 73 1017.7
20260503021125 8 136 1.6 4.8 0.00 0.00 0.00 72 1017.7
20260503020622 8 75 1.6 4.8 0.00 0.00 0.00 73 1017.6
20260503020120 8 31 3.2 4.8 0.00 0.00 0.00 73 1017.5
20260503015616 8 37 4.8 4.8 0.00 0.00 0.00 74 1017.5
20260503015114 8 131 0.0 0.0 0.00 0.00 0.00 75 1017.5
20260503014609 8 139 0.0 1.6 0.00 0.00 0.00 74 1017.3
20260503014107 8 236 3.2 4.8 0.00 0.00 0.00 74 1017.6
20260503013604 8 50 0.0 1.6 0.00 0.00 0.00 76 1017.1
20260503013102 8 196 0.0 0.0 0.00 0.00 0.00 76 1017.0
20260503012559 8 175 1.6 3.2 0.00 0.00 0.00 74 1017.4
20260503012056 8 274 0.0 0.0 0.00 0.00 0.00 76 1016.8
20260503011552 8 274 0.0 0.0 0.00 0.00 0.00 73 1016.6
20260503011050 8 274 0.0 0.0 0.00 0.00 0.00 73 1016.6
20260503010545 8 274 0.0 0.0 0.00 0.00 0.00 73 1016.7
20260503010043 8 274 0.0 0.0 0.00 0.00 0.00 73 1016.5
20260503005540 8 274 0.0 0.0 0.00 0.00 0.00 71 1016.6
20260503005038 8 274 0.0 0.0 0.00 0.00 0.00 72 1016.5
20260503004533 8 274 0.0 0.0 0.00 0.00 0.00 71 1016.6
20260503004032 8 274 0.0 0.0 0.00 0.00 0.00 70 1016.6
20260503003528 8 274 0.0 0.0 0.00 0.00 0.00 69 1016.4
20260503003025 8 274 1.6 1.6 0.00 0.00 0.00 68 1016.6
20260503002522 8 129 1.6 1.6 0.00 0.00 0.00 67 1016.2
20260503002019 9 97 0.0 1.6 0.00 0.00 0.00 67 1016.1
20260503001515 9 166 1.6 1.6 0.00 0.00 0.00 65 1016.2
20260503001013 9 152 0.0 0.0 0.00 0.00 0.00 66 1016.0
20260503000510 10 135 0.0 1.6 0.00 0.00 0.00 65 1016.1
20260503000007 10 120 1.6 1.6 0.00 0.00 0.00 64 1015.9
20260502235503 10 162 1.6 1.6 0.00 0.00 0.00 63 1016.0
20260502235001 10 58 3.2 4.8 0.00 0.00 0.00 61 1016.0
20260502234457 11 130 0.0 1.6 0.00 0.00 0.00 62 1015.9
20260502233956 11 87 1.6 3.2 0.00 0.00 0.00 60 1016.0
20260502233456 11 127 3.2 4.8 0.00 0.00 0.00 60 1015.7
20260502232953 11 162 0.0 3.2 0.00 0.00 0.00 60 1015.7
20260502232449 11 166 3.2 4.8 0.00 0.00 0.00 61 1015.9
20260502231946 10 0 1.6 8.0 0.00 0.00 0.00 62 1015.7
20260502231443 11 348 4.8 8.0 0.00 0.00 0.00 61 1015.5
20260502230942 11 193 4.8 8.0 0.00 0.00 0.00 61 1015.8
20260502230439 11 313 4.8 9.7 0.00 0.00 0.00 62 1015.8
20260502225937 11 289 1.6 8.0 0.00 0.00 0.00 61 1015.8
20260502225433 11 315 3.2 3.2 0.00 0.00 0.00 60 1015.8
20260502224930 11 112 1.6 8.0 0.00 0.00 0.00 59 1015.8
20260502224426 11 242 3.2 4.8 0.00 0.00 0.00 61 1015.9
20260502223923 11 45 3.2 9.7 0.00 0.00 0.00 61 1015.6
20260502223421 11 42 3.2 4.8 0.00 0.00 0.00 61 1015.7
20260502222919 11 86 3.2 9.7 0.00 0.00 0.00 62 1015.7
20260502222416 11 18 4.8 14.5 0.00 0.00 0.00 60 1015.9
20260502221916 12 7 4.8 9.7 0.00 0.00 0.00 60 1015.8
20260502221413 11 1 4.8 11.3 0.00 0.00 0.00 61 1015.7
20260502220910 11 246 4.8 14.5 0.00 0.00 0.00 62 1015.6
20260502220406 11 349 4.8 16.1 0.00 0.00 0.00 61 1015.7
20260502215903 11 95 3.2 9.7 0.00 0.00 0.00 61 1015.7